Flag for Chile Weather past 2 weeks in Santiago, Chile

Now
61 °F

Partly sunny.


Feels Like: 61 °F
Forecast: 52 / 74 °F
Wind: 2 mph from North

Location: Pudahuel

Current Time: Aug 29, 2015 at 12:28:06 PM

Latest Report: Aug 29, 2015 at 12:00 PM


Visibility: N/A

Pressure: 30.04 "Hg (28.06 "Hg at 576m altitude)

Humidity: 42%

Dew point: 37 °F

Location of SantiagoLocation

Historic Weather in Santiago — Graph

°F

Santiago temperature yesterday

Maximum temperature yesterday: 75 °F (at 5:00 PM)
Minimum temperature yesterday: 50 °F (at 5:00 AM)
Average temperature yesterday: 59 °F

Past Weeks' High & Low Weather Summary

 TemperatureHumidityPressure
High75 °F (Aug 28, 5:00 PM)100% (Aug 16, 8:00 AM)32.43 "Hg (Aug 16, 8:00 AM)
Low36 °F (Aug 18, 9:00 AM)25% (Aug 28, 5:00 PM)29.86 "Hg (Aug 24, 4:00 PM)
Average53 °F74%30.06 "Hg
* Reported Aug 14 11:00 AM — Aug 29 11:00 AM, Santiago, Weather by CustomWeather, © 2015

Note: Actual official high and low records may vary slightly from our data, if they occured in-between our weather recording intervals... More about our weather records

Advertising

Santiago weather history for previous 24 hours

 ConditionsComfort  
Time TempWeatherWind HumidityBarometerVisibility
11:00 AM
Sat, Aug 29
57 °FPartly sunny.1 mph55%30.07 "HgN/A
10:00 AM52 °FBroken clouds.3 mph67%30.04 "HgN/A
9:00 AM45 °FBroken clouds.3 mph76%30.07 "Hg5 mi
8:00 AM43 °FScattered clouds.3 mph81%30.04 "Hg5 mi
7:00 AM43 °FPassing clouds.3 mph81%30.01 "HgN/A
6:00 AM43 °FPassing clouds.2 mph81%30.01 "HgN/A
4:00 AM45 °FPassing clouds.5 mph81%30.04 "HgN/A
3:00 AM46 °FClear.2 mph82%30.07 "Hg10 mi
2:00 AM48 °FClear.1 mph76%30.07 "Hg5 mi
1:00 AM48 °FClear.2 mph76%30.07 "Hg5 mi
12:00 AM52 °FClear.5 mph72%30.07 "Hg4 mi
11:00 PM
Fri, Aug 28
57 °FClear.1 mph55%30.04 "Hg10 mi
10:00 PM59 °FClear.6 mph55%30.04 "Hg10 mi
9:00 PM61 °FClear.8 mph52%30.01 "Hg10 mi
8:00 PM64 °FClear.13 mph43%30.01 "Hg10 mi
7:00 PM66 °FClear.15 mph40%29.98 "Hg10 mi
6:00 PM72 °FSunny.13 mph33%29.95 "Hg10 mi
5:00 PM75 °FPassing clouds.6 mph25%29.95 "HgN/A
4:00 PM73 °FSunny.2 mph27%29.98 "Hg10 mi
3:00 PM72 °FSunny.1 mph27%30.01 "Hg10 mi
2:00 PM68 °FSunny.6 mph35%30.04 "Hg10 mi
1:00 PM63 °FClear.6 mph49%30.07 "Hg5 mi
12:00 PM57 °FClear.6 mph59%30.09 "Hg5 mi
Weather by CustomWeather, © 2015

See weather overviewHow to use our weather pages